TimeCDT,TemperatureF,Dew PointF,Humidity,Sea Level PressureIn,VisibilityMPH,Wind Direction,Wind SpeedMPH,Gust SpeedMPH,PrecipitationIn,Events,Conditions,WindDirDegrees,DateUTC
12:51 AM,71.1,59.0,66,29.99,10.0,ENE,4.6,-,N/A,,Clear,70,2013-10-21 05:51:00
1:51 AM,72.0,61.0,68,30.01,10.0,East,3.5,-,N/A,,Clear,80,2013-10-21 06:51:00
2:51 AM,72.0,63.0,73,30.00,10.0,East,3.5,-,N/A,,Clear,80,2013-10-21 07:51:00
3:51 AM,72.0,63.0,73,30.01,10.0,Calm,Calm,-,N/A,,Scattered Clouds,0,2013-10-21 08:51:00
4:51 AM,72.0,63.0,73,29.99,10.0,ENE,4.6,-,0.00,,Clear,60,2013-10-21 09:51:00
5:51 AM,73.0,64.0,73,30.00,10.0,ENE,4.6,-,N/A,,Partly Cloudy,70,2013-10-21 10:51:00
6:51 AM,73.0,64.0,73,30.01,10.0,NE,3.5,-,N/A,,Clear,40,2013-10-21 11:51:00
7:51 AM,73.0,64.9,76,30.01,10.0,ENE,4.6,-,N/A,,Clear,60,2013-10-21 12:51:00
8:51 AM,73.0,64.9,76,30.03,10.0,ENE,5.8,-,N/A,,Clear,60,2013-10-21 13:51:00
9:51 AM,73.9,66.0,76,30.04,10.0,ENE,6.9,-,N/A,,Clear,70,2013-10-21 14:51:00
10:51 AM,73.9,66.9,79,30.04,10.0,East,8.1,-,N/A,,Clear,80,2013-10-21 15:51:00
11:51 AM,75.0,66.9,76,30.03,10.0,ENE,8.1,-,N/A,,Clear,70,2013-10-21 16:51:00
12:51 PM,75.9,68.0,76,30.01,10.0,NE,8.1,-,N/A,,Clear,50,2013-10-21 17:51:00
1:51 PM,75.0,68.0,79,29.99,10.0,NNE,5.8,-,N/A,,Partly Cloudy,30,2013-10-21 18:51:00
2:51 PM,75.0,68.0,79,29.99,10.0,NE,5.8,-,N/A,,Clear,40,2013-10-21 19:51:00
3:51 PM,73.9,68.0,82,29.97,10.0,NE,9.2,-,N/A,,Partly Cloudy,40,2013-10-21 20:51:00
4:51 PM,73.9,66.9,79,29.98,10.0,NE,9.2,-,N/A,,Clear,50,2013-10-21 21:51:00
5:51 PM,73.0,66.9,81,29.98,10.0,NE,6.9,-,N/A,,Partly Cloudy,50,2013-10-21 22:51:00
6:51 PM,73.0,66.9,81,29.98,10.0,NE,9.2,18.4,N/A,,Partly Cloudy,50,2013-10-21 23:51:00
7:51 PM,73.0,66.9,81,29.99,10.0,ENE,9.2,-,0.00,,Mostly Cloudy,60,2013-10-22 00:51:00
8:51 PM,73.0,66.9,81,30.00,10.0,ENE,9.2,-,0.00,Rain,Light Rain,70,2013-10-22 01:51:00
9:51 PM,73.0,66.0,79,29.98,10.0,East,11.5,17.3,0.00,,Mostly Cloudy,80,2013-10-22 02:51:00
10:51 PM,73.0,64.9,76,29.96,10.0,East,11.5,-,0.00,,Clear,80,2013-10-22 03:51:00
11:51 PM,73.0,60.1,64,29.95,10.0,East,10.4,-,0.00,,Mostly Cloudy,80,2013-10-22 04:51:00